FW4010 Weather Reports


time (UTC)temp
F
wind
direction
speed
knots
gust
knots
rain 1hr
in
rain 24hr
in
rain mn
in
humidity
%
barometer
mb
20260507104526 39 360 2.6 7.8 0.00 0.40 0.00 85 1018.0
20260507103023 39 360 1.7 5.2 0.00 0.40 0.00 85 1017.9
20260507101525 38 360 2.6 7.0 0.00 0.40 0.00 87 1017.9
20260507094519 38 360 0.9 4.3 0.01 0.40 0.00 87 1017.8
20260507093025 38 360 2.6 4.3 0.01 0.40 0.40 88 1017.7
20260507091531 38 360 2.6 4.3 0.01 0.40 0.40 89 1017.7
20260507084520 39 360 1.7 5.2 0.01 0.39 0.39 90 1017.6
20260507083015 38 360 0.9 4.3 0.03 0.39 0.39 90 1017.4
20260507081517 39 360 2.6 5.2 0.03 0.39 0.39 90 1017.4
20260507074514 39 360 0.0 3.5 0.05 0.38 0.38 91 1017.3
20260507073012 39 360 2.6 5.2 0.05 0.36 0.36 91 1017.2
20260507071511 39 360 2.6 7.0 0.08 0.36 0.36 92 1016.9
20260507064511 39 360 0.0 0.0 0.08 0.33 0.33 92 1016.8
20260507063024 39 360 0.9 5.2 0.08 0.31 0.31 92 1016.7
20260507061509 39 360 1.7 3.5 0.07 0.28 0.28 92 1016.5
20260507054505 39 175 0.0 0.0 0.05 0.25 0.25 93 1016.2
20260507053006 40 360 0.0 0.0 0.04 0.24 0.24 93 1016.0
20260507051505 40 360 0.0 0.0 0.05 0.22 0.22 92 1016.0
20260507044504 39 360 0.0 2.6 0.14 0.20 0.20 91 1016.0
20260507043004 39 360 1.7 3.5 0.15 0.20 0.20 91 1015.8
20260507041503 39 171 2.6 6.1 0.14 0.18 0.18 89 1016.1
20260507034541 42 211 1.7 8.7 0.03 0.07 0.07 86 1015.5
20260507021601 45 171 1.7 6.1 0.01 0.01 0.01 79 1014.4
20260507020059 45 207 0.9 6.1 0.01 0.01 0.01 78 1014.4
20260507014602 47 9 0.0 1.7 0.00 0.00 0.00 72 1014.3
20260507011506 45 200 1.7 4.3 0.00 0.00 0.00 77 1014.4
20260507010002 45 211 1.7 4.3 0.00 0.00 0.00 76 1014.4
20260507004501 45 212 1.7 6.1 0.00 0.00 0.00 77 1014.4
20260507001558 46 251 0.9 3.5 0.00 0.00 0.00 79 1014.2
20260507000056 45 154 0.0 5.2 0.00 0.00 0.00 79 1014.2
20260506234554 45 226 0.0 3.5 0.00 0.00 0.00 80 1014.2
20260506231558 44 237 0.9 3.5 0.00 0.00 0.00 82 1013.7
20260506230058 45 267 0.0 7.0 0.00 0.00 0.00 78 1013.9
20260506224552 47 223 2.6 6.1 0.00 0.00 0.00 71 1013.6
20260506221555 46 215 2.6 6.1 0.00 0.00 0.00 70 1013.4
20260506220048 46 229 3.5 7.8 0.00 0.00 0.00 70 1013.4
20260506214545 46 215 3.5 7.8 0.00 0.00 0.00 67 1013.2
20260506211544 49 172 1.7 6.1 0.00 0.00 0.00 62 1012.8
20260506210042 49 202 0.0 3.5 0.00 0.00 0.00 64 1012.8
20260506204540 49 286 0.9 7.8 0.00 0.00 0.00 66 1012.7
20260506201540 48 137 0.9 5.2 0.00 0.00 0.00 68 1012.3
20260506200042 48 219 0.9 4.3 0.00 0.00 0.00 71 1012.3
20260506194539 47 282 1.7 6.1 0.00 0.00 0.00 73 1012.2
20260506191532 45 216 0.9 3.5 0.00 0.00 0.00 76 1012.2
20260506190031 45 221 0.9 2.6 0.00 0.00 0.00 76 1012.2
20260506184530 45 220 0.0 3.5 0.00 0.00 0.00 73 1012.2
20260506181527 44 209 0.0 0.0 0.00 0.00 0.00 77 1012.1
20260506180026 44 250 0.0 5.2 0.00 0.00 0.00 75 1012.0
20260506174522 43 309 0.0 0.0 0.00 0.00 0.00 76 1012.0
20260506171522 42 136 0.9 3.5 0.00 0.00 0.00 78 1011.9
20260506170019 42 360 0.0 2.6 0.00 0.00 0.00 79 1011.9
20260506164518 41 360 0.9 3.5 0.00 0.00 0.00 79 1011.8
20260506161513 41 292 0.0 2.6 0.00 0.00 0.00 79 1011.6
20260506160016 40 360 0.0 2.6 0.00 0.00 0.00 81 1011.5
20260506154509 40 360 0.9 2.6 0.00 0.00 0.00 81 1011.4
20260506151509 39 360 0.0 0.0 0.00 0.00 0.00 82 1011.4
20260506150006 39 360 0.0 1.7 0.00 0.00 0.00 82 1011.2
20260506144503 39 360 0.0 0.0 0.00 0.00 0.00 83 1011.0
20260506141612 39 360 0.0 0.0 0.00 0.00 0.00 82 1011.1
20260506140059 39 360 0.0 0.0 0.00 0.00 0.00 82 1011.0
20260506134558 39 360 0.0 0.0 0.00 0.00 0.00 82 1011.0
20260506131557 40 360 0.0 0.0 0.00 0.00 0.00 81 1010.8
20260506130056 40 360 0.0 4.3 0.00 0.00 0.00 82 1010.7
20260506124554 39 360 0.0 3.5 0.00 0.00 0.00 82 1010.7
20260506123052 39 169 1.7 7.0 0.00 0.00 0.00 83 1010.7
20260506121559 39 126 0.0 2.6 0.00 0.00 0.00 83 1010.5
20260506114549 39 360 0.0 0.9 0.00 0.00 0.00 84 1010.4
20260506113048 39 360 0.9 4.3 0.00 0.00 0.00 84 1010.2
20260506111546 39 360 3.5 7.8 0.00 0.00 0.00 83 1010.2
20260506110145 39 360 3.5 9.6 0.00 0.00 0.00 83 1010.2